TimeAKST,TemperatureF,Dew PointF,Humidity,Sea Level PressureIn,VisibilityMPH,Wind Direction,Wind SpeedMPH,Gust SpeedMPH,PrecipitationIn,Events,Conditions,WindDirDegrees,DateUTC
12:54 AM,7.0,-0.9,70,30.20,10.0,WNW,13.8,-,N/A,,Clear,300,2012-12-08 09:54:00
1:54 AM,6.1,-0.9,73,30.20,10.0,WNW,15.0,-,N/A,,Clear,290,2012-12-08 10:54:00
2:54 AM,7.0,-2.0,67,30.22,10.0,WNW,17.3,-,N/A,,Overcast,290,2012-12-08 11:54:00
3:54 AM,5.0,-0.9,76,30.23,10.0,West,11.5,-,N/A,,Overcast,280,2012-12-08 12:54:00
4:54 AM,6.1,-0.9,73,30.22,10.0,WNW,15.0,-,N/A,,Overcast,290,2012-12-08 13:54:00
5:54 AM,8.1,-0.0,70,30.22,10.0,WNW,15.0,-,N/A,,Overcast,290,2012-12-08 14:54:00
6:54 AM,6.1,-0.0,76,30.22,10.0,WNW,13.8,-,N/A,,Overcast,290,2012-12-08 15:54:00
7:54 AM,7.0,1.0,77,30.23,10.0,WNW,12.7,-,N/A,,Overcast,290,2012-12-08 16:54:00
8:54 AM,7.0,1.9,80,30.24,10.0,West,13.8,-,N/A,,Overcast,280,2012-12-08 17:54:00
9:54 AM,8.1,3.0,80,30.25,10.0,WNW,13.8,-,N/A,,Overcast,290,2012-12-08 18:54:00
10:54 AM,9.0,3.0,77,30.24,8.0,WNW,13.8,-,0.00,Snow,Light Snow,290,2012-12-08 19:54:00
11:32 AM,8.6,3.2,79,30.22,10.0,WNW,13.8,-,0.00,,Overcast,290,2012-12-08 20:32:00
11:54 AM,9.0,3.9,80,30.22,10.0,WNW,15.0,-,0.00,,Overcast,290,2012-12-08 20:54:00
12:54 PM,10.0,5.0,80,30.22,9.0,WNW,11.5,-,0.00,Snow,Light Snow,290,2012-12-08 21:54:00
1:15 PM,10.4,5.0,79,30.20,10.0,WNW,10.4,-,0.00,,Overcast,290,2012-12-08 22:15:00
1:54 PM,10.9,5.0,77,30.21,7.0,WNW,9.2,-,0.00,Snow,Light Snow,300,2012-12-08 22:54:00
2:54 PM,12.9,7.0,77,30.17,10.0,WNW,9.2,-,0.00,,Overcast,290,2012-12-08 23:54:00
3:54 PM,12.9,8.1,81,30.14,5.0,WNW,9.2,-,0.00,Snow,Light Snow,290,2012-12-09 00:54:00
4:06 PM,12.2,8.6,85,30.13,2.5,WNW,10.4,-,0.00,Snow,Light Snow,290,2012-12-09 01:06:00
4:19 PM,12.2,8.6,85,30.12,1.8,WNW,10.4,-,0.00,Snow,Light Snow,290,2012-12-09 01:19:00
4:40 PM,12.2,8.6,85,30.11,2.0,WNW,10.4,-,0.00,Snow,Light Snow,290,2012-12-09 01:40:00
4:47 PM,12.2,8.6,85,30.11,1.5,WNW,11.5,-,0.00,Snow,Light Snow,290,2012-12-09 01:47:00
4:54 PM,12.0,8.1,84,30.11,1.0,WNW,11.5,-,0.00,Snow,Light Snow,290,2012-12-09 01:54:00
5:04 PM,12.2,8.6,85,30.10,1.0,WNW,10.4,-,0.00,Snow,Light Snow,290,2012-12-09 02:04:00
5:34 PM,12.2,8.6,85,30.09,1.5,WNW,6.9,-,0.01,Snow,Light Snow,300,2012-12-09 02:34:00
5:54 PM,15.1,10.9,84,30.09,1.5,WNW,8.1,-,0.01,Snow,Light Snow,300,2012-12-09 02:54:00
6:12 PM,12.2,10.4,92,30.07,1.0,WNW,6.9,-,0.01,Snow,Light Snow,290,2012-12-09 03:12:00
6:22 PM,12.2,10.4,92,30.06,0.8,WNW,5.8,-,0.01,Snow,Light Snow,290,2012-12-09 03:22:00
6:33 PM,12.2,10.4,92,30.05,0.8,WNW,4.6,-,0.02,Snow,Light Snow,290,2012-12-09 03:33:00
6:54 PM,12.9,10.0,88,30.04,1.0,West,3.5,-,0.04,Snow,Light Snow,280,2012-12-09 03:54:00
7:04 PM,12.2,10.4,92,30.01,0.8,WNW,3.5,-,0.00,Snow,Light Snow,290,2012-12-09 04:04:00
7:11 PM,12.2,10.4,92,30.01,1.0,Calm,Calm,-,0.01,Snow,Light Snow,0,2012-12-09 04:11:00
7:44 PM,12.2,10.4,92,30.00,2.0,West,10.4,-,0.01,Snow,Light Snow,280,2012-12-09 04:44:00
7:54 PM,12.9,10.0,88,30.00,1.8,WNW,10.4,-,0.02,Snow,Light Snow,290,2012-12-09 04:54:00
8:28 PM,12.2,10.4,92,29.97,0.8,Calm,Calm,-,0.00,Snow,Light Snow,0,2012-12-09 05:28:00
8:43 PM,12.2,10.4,92,29.95,0.8,Calm,Calm,-,0.01,Snow,Light Snow,0,2012-12-09 05:43:00
8:50 PM,12.2,10.4,92,29.94,1.0,NW,3.5,-,0.02,Snow,Light Snow,310,2012-12-09 05:50:00
8:54 PM,12.9,10.0,88,29.95,1.0,Calm,Calm,-,0.02,Snow,Light Snow,0,2012-12-09 05:54:00
9:12 PM,12.2,10.4,92,29.91,0.8,Calm,Calm,-,0.01,Snow,Light Snow,0,2012-12-09 06:12:00
9:27 PM,12.2,10.4,92,29.90,0.8,WNW,6.9,-,0.02,Snow,Light Snow,290,2012-12-09 06:27:00
9:29 PM,12.2,10.4,92,29.90,1.0,WNW,6.9,-,0.02,Snow,Light Snow,300,2012-12-09 06:29:00
9:54 PM,14.0,10.9,88,29.88,1.0,WNW,5.8,-,0.03,Snow,Light Snow,290,2012-12-09 06:54:00
10:29 PM,12.2,10.4,92,29.85,0.8,WNW,5.8,-,0.02,Snow,Light Snow,290,2012-12-09 07:29:00
10:38 PM,12.2,10.4,92,29.84,0.5,WNW,8.1,-,0.03,Fog-Snow,Snow,290,2012-12-09 07:38:00
10:54 PM,12.9,10.0,88,29.85,0.8,WNW,8.1,-,0.05,Snow,Light Snow,290,2012-12-09 07:54:00
11:17 PM,12.2,10.4,92,29.82,0.8,West,10.4,-,0.01,Snow,Light Snow,280,2012-12-09 08:17:00
11:54 PM,12.9,10.0,88,29.80,1.0,WNW,5.8,-,0.03,Snow,Light Snow,300,2012-12-09 08:54:00